Triuchirapalli, India

3:19 AM IST on August 28, 2016 (GMT +0530)
Tiruchirappalli

Weather History for VOTR - March, 2014

Change the Weather History Date:

Saturday, March 29, 2014

  Actual Average Record
Temperature  
Mean Temperature 86 °F -  
Max Temperature 100 °F 94 °F 103 °F (2013)
Min Temperature 72 °F 80 °F 72 °F (2014)
Cooling Degree Days 21    
Growing Degree Days 36 (Base 50)    
Moisture  
Dew Point 66 °F    
Average Humidity 55    
Maximum Humidity 89    
Minimum Humidity 11    
Precipitation  
Precipitation 0.00 in - - ()
Sea Level Pressure  
Sea Level Pressure 29.82 in    
Wind  
Wind Speed 4 mph ()    
Max Wind Speed 15 mph    
Max Gust Speed -    
Visibility 3.6 miles    
Events      
Averages and records for this station are not official NWS values.
T = Trace of Precipitation, MM = Missing Value Source: Averaged Metar Reports

Daily Weather History Graph

Daily Weather History Graph

Search for Another Location

Airport or City:

Trip Planner

Search our weather history database for the weather conditions in past years. The results will help you decide how hot, cold, wet, or windy it might be!

Date:

Astronomy

Mar. 29, 2014 Rise Set
Actual Time 6:14 AM IST 6:25 PM IST
Civil Twilight 5:53 AM IST 6:47 PM IST
Nautical Twilight 5:28 AM IST 7:11 PM IST
Astronomical Twilight 5:04 AM IST 7:36 PM IST
Moon 4:48 AM IST (3/29) 5:10 PM IST (3/29)
Length of Visible Light 12h 53m
Length of Day
12h 11m
Waning Crescent, 3% of the Moon is Illuminated
Mar 29
Waning Crescent
Mar 31
New
Apr 7
First Quarter
Apr 15
Full
Apr 22
Last Quarter

Hourly Weather History & Observations

Time (IST) Temp. Heat Index Dew Point Humidity Pressure Visibility Wind Dir Wind Speed Gust Speed Precip Events Conditions
12:40 AM 78.8 °F - 69.8 °F 74% 29.86 in 3.1 mi East 4.6 mph - N/A   Haze
1:10 AM 77.0 °F - 69.8 °F 78% 29.86 in 2.5 mi East 3.5 mph - N/A   Haze
1:40 AM 77.0 °F - 69.8 °F 78% 29.86 in 2.5 mi ENE 3.5 mph - N/A   Haze
2:10 AM 77.0 °F - 69.8 °F 78% 29.83 in 2.5 mi Variable 3.5 mph - N/A   Haze
2:30 AM 75 °F - 70 °F 79% 29.83 in 2 mi NNE 4.6 mph - -   Haze
2:40 AM 75.2 °F - 69.8 °F 83% 29.83 in 2.5 mi NNE 4.6 mph - N/A   Haze
3:10 AM 75.2 °F - 69.8 °F 83% 29.83 in 2.5 mi NNE 4.6 mph - N/A   Haze
3:40 AM 75.2 °F - 69.8 °F 83% 29.83 in 2.5 mi NNE 3.5 mph - N/A   Haze
4:40 AM 73.4 °F - 69.8 °F 88% 29.83 in 1.9 mi Calm Calm - N/A   Haze
5:10 AM 73.4 °F - 69.8 °F 88% 29.83 in 1.9 mi Calm Calm - N/A   Haze
5:30 AM 76 °F - 71 °F 80% 29.84 in 1 mi Calm Calm - -   Haze
5:40 AM 75.2 °F - 71.6 °F 89% 29.83 in 1.9 mi Calm Calm - N/A   Haze
6:10 AM 75.2 °F - 71.6 °F 89% 29.86 in 1.6 mi Calm Calm - N/A   Haze
6:40 AM 77.0 °F - 71.6 °F 83% 29.86 in 1.2 mi Calm Calm - N/A   Scattered Clouds
7:10 AM 77.0 °F - 71.6 °F 83% 29.89 in 1.2 mi Calm Calm - N/A   Scattered Clouds
7:40 AM 78.8 °F - 71.6 °F 78% 29.89 in 1.6 mi Calm Calm - N/A   Haze
8:10 AM 78.8 °F - 71.6 °F 78% 29.89 in 1.6 mi ESE 3.5 mph - N/A   Haze
8:30 AM 81 °F - 73 °F 70% 29.91 in 2 mi NE 4.6 mph - -   Haze
8:40 AM 80.6 °F 85.4 °F 73.4 °F 79% 29.89 in 1.9 mi East 8.1 mph - N/A   Haze
9:10 AM 82.4 °F 88.2 °F 73.4 °F 74% 29.92 in 1.9 mi ESE 5.8 mph - N/A   Haze
9:40 AM 82.4 °F 88.2 °F 73.4 °F 74% 29.92 in 1.9 mi ESE 3.5 mph - N/A   Haze
10:10 AM 84.2 °F 90.9 °F 73.4 °F 70% 29.92 in 1.9 mi SE 4.6 mph - N/A   Haze
10:40 AM 89.6 °F 94.7 °F 69.8 °F 52% 29.89 in 3.1 mi SE 5.8 mph - N/A   Haze
11:10 AM 91.4 °F 95.4 °F 68.0 °F 46% 29.89 in 3.1 mi SSE 3.5 mph - N/A   Haze
11:30 AM 95 °F - 67 °F 31% 29.87 in 2 mi NNE 2.3 mph - -   Haze
11:40 AM 95.0 °F 99.5 °F 68.0 °F 41% 29.86 in 3.7 mi ESE 6.9 mph - N/A   Partly Cloudy
12:10 PM 95.0 °F 99.5 °F 68.0 °F 41% 29.86 in 4.3 mi SE 6.9 mph - N/A   Partly Cloudy
12:40 PM 96.8 °F 101.8 °F 68.0 °F 39% 29.83 in 5.0 mi NE 8.1 mph - N/A   Partly Cloudy
1:10 PM 96.8 °F 100.7 °F 66.2 °F 37% 29.80 in 6.2 mi NNE 9.2 mph - N/A   Partly Cloudy
1:40 PM 98.6 °F 102.8 °F 66.2 °F 35% 29.80 in 6.2 mi NE 15.0 mph - N/A   Partly Cloudy
2:10 PM 98.6 °F 102.8 °F 66.2 °F 35% 29.80 in 6.2 mi ENE 6.9 mph - N/A   Partly Cloudy
2:30 PM 100 °F - 50 °F 11% 29.76 in 6 mi NE 5.8 mph - -   Scattered Clouds
2:40 PM 100.4 °F - 50.0 °F 18% 29.74 in 6.2 mi NE 5.8 mph - N/A   Partly Cloudy
3:10 PM 100.4 °F 100.2 °F 59.0 °F 25% 29.74 in 6.2 mi East 6.9 mph - N/A   Partly Cloudy
3:40 PM 98.6 °F 98.5 °F 59.0 °F 27% 29.74 in 6.2 mi East 6.9 mph - N/A   Partly Cloudy
4:10 PM 98.6 °F 98.5 °F 59.0 °F 27% 29.74 in 6.2 mi ENE 11.5 mph - N/A   Partly Cloudy
4:40 PM 98.6 °F 99.4 °F 60.8 °F 29% 29.74 in 6.2 mi East 11.5 mph - N/A   Partly Cloudy
5:10 PM 96.8 °F 97.1 °F 60.8 °F 30% 29.74 in 6.2 mi East 11.5 mph - N/A   Partly Cloudy
5:30 PM 98 °F - 56 °F 16% 29.73 in 6 mi East 9.2 mph - -   Scattered Clouds
5:40 PM 96.8 °F 96.2 °F 59.0 °F 28% 29.74 in 6.2 mi East 11.5 mph - N/A   Partly Cloudy
6:10 PM 96.8 °F 96.2 °F 59.0 °F 28% 29.74 in 6.2 mi East 10.4 mph - N/A   Partly Cloudy
6:40 PM 95.0 °F 95.2 °F 60.8 °F 32% 29.74 in 6.2 mi East 8.1 mph - N/A   Partly Cloudy
7:10 PM 93.2 °F 93.3 °F 60.8 °F 34% 29.74 in 5.0 mi East 5.8 mph - N/A   Partly Cloudy
7:40 PM 91.4 °F 91.4 °F 60.8 °F 36% 29.77 in 3.7 mi ESE 4.6 mph - N/A   Partly Cloudy
8:10 PM 89.6 °F 91.1 °F 64.4 °F 43% 29.77 in 3.7 mi East 5.8 mph - N/A   Partly Cloudy
8:30 PM 87 °F - 63 °F 35% 29.78 in 2 mi SE 4.6 mph - -   Haze
8:40 PM 86.0 °F 87.3 °F 64.4 °F 48% 29.80 in 3.7 mi ESE 4.6 mph - N/A   Partly Cloudy
9:10 PM 86.0 °F 87.3 °F 64.4 °F 48% 29.80 in 3.7 mi SE 4.6 mph - N/A   Partly Cloudy
9:40 PM 86.0 °F 87.3 °F 64.4 °F 48% 29.83 in 3.7 mi SE 4.6 mph - N/A   Partly Cloudy
10:10 PM 84.2 °F 86.6 °F 66.2 °F 55% 29.86 in 3.7 mi SSE 3.5 mph - N/A   Partly Cloudy
10:40 PM 82.4 °F 84.6 °F 66.2 °F 58% 29.86 in 3.7 mi Calm Calm - N/A   Partly Cloudy
11:10 PM 80.6 °F 83.2 °F 68.0 °F 65% 29.86 in 3.7 mi East 3.5 mph - N/A   Partly Cloudy
11:30 PM 80 °F - 62 °F 44% 29.85 in 2 mi East 3.5 mph - -   Haze
11:40 PM 80.6 °F 82.7 °F 66.2 °F 61% 29.86 in 3.7 mi ESE 3.5 mph - N/A   Partly Cloudy